EHI
0 0 0 0 0 0 0 0 0 0 0 0 0 0 0 0 0 0 1 2 4 5 6 4 1 0 0 0 0 0 0 0 0 1 1 1 0 0 0 0 0 0 0 0
0 0 0 0 0 0 0 0 0 0 0 0 0 0 0 0 0 0 1 3 3 4 5 4 1 0 1 1 0 0 0 0 0 0 0 0 0 0 0 0 0 0 0 0
0 0 0 0 0 0 0 0 0 0 0 0 0 0 0 0 0 1 2 3 3 3 4 3 2 2 2 2 1 0 0 0 0 0 0 0 0 0 0 0 0 0 0 0
0 0 0 0 0 0 0 0 0 0 0 0 0 0 0 0 0 1 2 3 3 3 3 3 3 3 3 3 2 1 0 0 0 0 0 0 0 0 0 1 1 1 0 0
0 0 0 0 0 0 0 0 0 0 0 0 0 0 0 0 0 0 2 3 3 3 3 3 3 3 3 3 2 1 0 0 0 0 0 0 0 0 0 1 2 2 1 1
0 0 0 0 0 0 0 0 0 0 0 0 0 0 0 0 0 1 2 3 3 3 3 3 3 3 3 3 2 1 0 0 0 0 0 0 0 0 0 1 2 2 2 2
0 0 0 0 0 0 0 0 0 0 0 0 0 0 0 0 0 1 2 3 3 3 3 3 3 3 3 3 2 1 0 0 0 0 0 0 0 0 0 0 1 1 2 2
0 0 0 0 0 0 0 0 0 0 0 0 0 0 0 0 0 0 1 2 3 3 3 3 3 3 3 3 2 1 0 0 0 0 0 0 0 0 0 0 0 0 1 1
0 0 0 0 0 0 0 0 0 0 0 0 0 0 0 0 1 1 1 2 3 3 4 3 3 3 3 3 2 1 0 0 0 0 0 0 0 0 0 0 0 0 0 1
0 0 0 0 0 0 0 0 0 0 0 0 0 0 0 1 2 2 2 2 2 3 4 4 3 4 4 2 1 0 0 0 0 0 0 0 0 0 0 0 0 0 1 2
0 0 0 0 0 0 0 0 0 0 0 0 0 0 0 1 2 2 2 2 1 1 2 3 3 4 4 2 0 0 0 0 0 0 0 0 0 0 0 0 0 0 1 2
0 0 0 0 0 0 0 0 0 0 0 0 0 0 0 0 1 1 1 1 0 0 1 1 1 2 2 1 0 0 0 0 0 0 0 0 0 0 0 0 0 0 1 1
0 0 0 0 0 0 0 0 0 0 0 0 0 0 0 0 0 0 0 0 0 0 0 0 0 0 1 1 0 0 0 0 0 0 0 0 0 0 0 0 0 0 0 0
0 0 0 0 0 0 0 0 0 0 0 0 0 0 0 0 0 0 0 0 0 0 0 0 0 0 0 0 0 0 0 0 0 0 0 0 0 0 0 0 0 0 0 0
0 0 0 0 0 0 0 0 0 0 0 0 0 0 0 0 0 0 0 0 0 0 0 0 0 0 0 0 0 0 0 0 0 0 0 0 0 0 0 0 0 0 0 0
0 0 0 0 0 0 0 0 0 0 0 0 0 0 0 0 0 0 0 0 0 0 0 0 0 0 0 0 0 0 0 0 0 0 0 0 0 0 0 0 0 0 0 0
0 0 0 0 0 0 0 0 0 0 0 0 0 0 0 0 0 0 0 0 0 0 0 0 0 0 0 0 0 0 0 0 0 0 0 0 0 0 0 0 0 0 0 0
0 0 0 0 0 0 0 0 0 0 0 0 0 0 0 0 0 0 0 0 0 0 0 0 0 0 0 0 0 0 0 0 0 0 0 0 0 0 0 0 0 0 0 0
0 0 0 0 0 0 0 0 0 0 0 0 0 0 0 0 0 0 0 0 0 0 0 0 0 0 0 0 0 0 0 0 0 0 0 0 0 0 0 0 0 0 0 0
0 0 0 0 0 0 0 0 0 0 0 0 0 0 0 0 0 0 0 0 0 0 0 0 0 0 0 0 0 0 0 0 0 0 0 0 0 0 0 0 0 0 0 0
0 0 0 0 0 0 0 0 0 0 0 0 0 0 0 0 0 0 0 0 0 0 0 0 0 0 0 0 0 0 0 0 0 0 0 0 0 0 0 0 0 0 0 0
0 0 0 0 0 0 0 0 0 0 0 0 0 0 0 0 0 0 0 0 0 0 0 0 0 0 0 0 0 0 0 0 0 0 0 0 0 0 0 0 0 0 0 0
0 0 0 0 0 0 0 0 0 0 0 0 0 0 0 0 0 0 0 0 0 0 0 0 0 0 0 0 0 0 0 0 0 0 0 0 0 0 0 0 0 0 0 0
0 0 0 0 0 0 0 0 0 0 0 0 0 0 0 0 0 0 0 0 0 0 0 0 0 0 0 0 0 0 0 0 0 0 0 0 0 0 0 0 0 0 0 0
0 0 0 0 0 0 0 0 0 0 0 0 0 0 0 0 0 0 0 0 0 0 0 0 0 0 0 0 0 0 0 0 0 0 0 0 0 0 0 0 0 0 0 0
0 0 0 0 0 0 0 0 0 0 0 0 0 0 0 0 0 0 0 0 0 0 0 0 0 0 0 0 0 0 0 0 0 0 0 0 0 0 0 0 0 0 0 0
0 0 0 0 0 0 0 0 0 0 0 0 0 0 0 0 0 0 0 0 0 0 0 0 0 0 0 0 0 0 0 0 0 0 0 0 0 0 0 0 0 0 0 0
Wind_Speed
9 7 5 7 8 10 12 13 12 11 11 10 8 7 5 3 3 3 3 3 3 3 3 4 4 3 3 4 4 4 4 4 4 4 3 3 3 3 3 3 3 3 3 3
10 8 9 10 10 11 12 13 14 14 13 9 8 5 3 3 4 4 4 3 3 3 3 4 4 4 4 4 4 4 5 4 4 4 4 4 4 3 3 3 3 3 4 3
8 7 9 11 10 11 10 10 11 12 11 7 6 5 5 4 4 4 4 4 3 3 4 4 4 4 4 4 4 5 5 4 4 4 4 4 3 3 3 3 3 3 3 3
7 7 11 4 2 7 10 10 10 9 8 7 7 6 4 4 4 4 3 3 3 3 3 4 3 3 3 3 4 4 4 4 4 4 4 4 4 4 4 3 3 3 3 4
6 9 10 6 3 5 8 8 6 8 8 6 4 4 4 3 3 3 3 3 3 3 4 4 4 3 3 4 4 4 4 4 4 4 4 4 4 4 4 3 3 3 3 4
7 9 9 3 0 2 6 8 3 5 6 5 4 6 3 1 3 3 2 2 2 2 3 3 4 4 4 4 4 4 4 4 3 4 4 4 4 4 3 3 3 3 3 4
11 10 8 1 1 3 6 3 2 4 5 5 7 6 3 1 2 3 2 2 2 3 3 3 3 4 4 4 3 3 2 3 3 3 4 4 4 4 4 3 3 3 4 4
9 10 7 3 4 5 4 4 3 5 5 5 6 4 2 2 2 2 2 2 2 3 3 3 4 4 4 4 2 2 2 3 3 3 3 3 4 4 4 4 4 4 4 4
7 6 2 3 5 4 5 5 5 5 5 5 5 5 4 3 2 3 3 3 3 3 3 3 4 4 4 3 2 3 3 3 3 3 3 3 4 4 4 4 4 4 3 3
8 7 6 5 6 6 6 6 6 5 5 5 5 5 5 4 3 3 3 3 3 3 3 3 3 3 3 2 3 4 4 3 3 3 3 3 3 3 4 4 4 4 4 3
9 8 6 6 6 6 6 6 6 5 4 5 6 6 5 4 3 3 3 3 3 3 3 3 3 3 3 2 3 4 4 3 3 3 3 3 2 2 3 3 3 4 4 4
8 7 7 7 6 6 6 6 5 5 4 4 5 5 5 4 3 3 3 3 3 3 3 2 3 3 3 3 4 4 3 3 3 2 2 2 2 2 2 3 2 4 4 4
9 8 8 8 8 6 6 6 5 5 5 4 4 4 4 3 3 3 3 4 3 3 3 2 2 3 3 3 3 4 4 3 3 3 3 3 3 3 3 2 3 4 4 4
9 8 8 8 7 6 6 5 5 4 4 3 3 2 2 2 3 3 4 4 3 3 2 2 2 2 2 3 4 4 4 3 3 3 3 3 3 3 3 3 3 3 3 4
8 9 9 8 7 6 5 4 4 3 3 2 2 2 2 3 3 3 3 3 3 2 2 2 2 2 2 3 3 4 3 3 3 3 3 3 3 3 3 4 3 3 2 2
8 8 8 8 7 6 5 5 5 4 3 3 2 2 3 3 2 2 2 2 3 3 3 3 3 2 2 3 3 3 3 3 3 3 3 3 3 3 3 3 3 3 3 2
8 7 7 7 6 6 6 6 5 5 4 3 3 3 2 2 2 2 2 2 2 3 3 3 3 2 2 3 3 3 3 2 3 3 3 3 3 3 3 3 3 3 3 2
8 8 7 6 6 6 6 5 5 5 4 4 3 3 3 3 3 2 2 2 2 2 2 2 2 2 2 3 3 2 2 2 3 3 3 3 3 3 3 3 3 4 3 2
6 6 6 6 6 5 5 5 5 4 4 3 4 4 4 4 3 2 2 2 3 3 2 2 2 3 3 2 2 2 2 3 3 3 3 3 3 3 3 3 3 3 3 3
5 4 4 4 4 5 5 4 4 4 3 4 4 4 4 3 2 2 3 3 2 2 2 2 2 2 2 2 1 2 3 3 3 3 3 3 3 3 3 3 3 3 4 3
3 4 4 4 4 4 4 4 4 4 4 4 4 4 4 3 3 3 3 3 2 1 1 1 2 2 2 2 2 2 3 3 3 3 3 3 3 3 3 3 3 4 4 4
3 3 3 3 3 3 3 3 3 3 3 4 4 3 3 3 3 3 3 2 1 1 1 1 1 1 2 2 2 2 3 3 3 3 3 3 4 3 4 4 4 4 4 4
3 3 3 3 2 2 2 2 2 3 3 3 3 3 3 2 2 3 2 1 1 1 2 1 1 1 2 2 2 2 3 3 3 3 4 4 4 4 4 5 4 4 4 4
3 2 2 2 2 2 2 2 2 2 2 2 2 3 3 2 2 2 2 1 1 2 2 1 1 2 3 2 2 3 3 3 3 3 3 4 4 4 4 4 4 4 4 4
3 3 3 3 2 2 2 2 1 1 1 1 2 2 2 2 2 1 1 2 2 2 2 1 2 2 2 2 2 3 3 3 3 3 3 3 4 4 4 4 4 4 4 4
3 2 2 3 2 2 2 2 2 2 2 1 1 1 1 1 1 1 1 1 2 2 2 1 2 2 2 2 3 3 3 3 3 3 4 3 4 4 4 4 5 4 4 4
3 2 2 2 2 2 2 2 2 2 2 2 2 1 1 1 1 1 1 1 1 1 2 2 2 2 2 2 3 3 3 3 3 3 3 3 3 3 4 4 4 4 4 4
Wind_Direction
267 269 260 258 254 240 239 247 258 268 271 280 288 289 283 248 215 203 195 187 184 186 180 171 171 174 187 190 190 186 190 197 202 203 202 205 205 212 215 219 223 223 221 220
255 249 254 254 257 251 247 250 257 266 268 277 287 290 273 230 206 210 210 203 196 191 187 186 182 181 185 191 192 194 199 204 205 204 200 207 211 209 213 223 232 226 223 217
257 250 255 249 245 243 245 242 253 261 272 280 270 259 253 235 217 220 224 213 208 203 193 192 191 187 191 191 191 200 204 206 204 205 205 206 207 206 210 217 224 225 226 221
263 253 246 252 246 241 247 249 252 266 278 278 273 269 260 243 230 231 228 221 211 209 197 193 188 184 184 186 194 202 206 205 203 207 210 210 209 211 217 219 216 221 222 219
249 256 260 241 226 236 242 249 260 263 270 277 290 271 243 230 238 241 232 232 226 213 206 191 183 185 184 185 191 202 209 211 209 211 212 213 213 213 217 219 219 219 219 220
242 255 259 257 237 248 251 248 267 269 267 265 253 259 259 233 233 237 230 218 215 212 196 188 183 187 192 191 194 206 214 221 219 217 217 220 222 220 215 214 217 220 219 226
240 250 260 303 78 190 236 290 334 280 270 251 248 273 304 257 228 228 224 211 194 193 190 188 188 194 203 203 207 211 214 222 224 221 223 225 224 218 213 210 213 217 220 225
231 241 246 133 163 220 286 324 302 292 283 265 264 280 277 244 216 208 208 198 195 193 193 185 189 199 210 216 215 209 206 213 222 224 224 221 218 218 215 210 216 218 221 224
234 249 316 204 235 273 304 293 296 293 294 277 264 264 258 247 223 208 206 199 200 202 191 188 193 202 216 217 212 209 207 213 222 229 228 224 217 217 218 217 219 221 222 227
249 251 257 254 260 269 278 285 293 292 289 270 261 261 252 243 227 211 206 199 199 199 196 199 204 208 219 217 215 213 215 221 225 230 232 230 229 228 226 219 218 222 223 228
252 261 264 253 260 272 276 280 285 286 280 265 260 255 245 237 223 213 205 202 200 202 207 209 209 214 218 213 215 217 222 227 229 233 241 241 237 248 247 242 243 236 228 227
252 261 267 276 280 276 272 273 276 278 280 268 256 253 246 235 222 212 206 206 205 204 211 224 217 218 225 219 218 221 224 227 231 229 232 237 240 240 277 268 252 253 262 258
267 277 275 279 281 277 270 271 275 270 270 267 260 250 238 229 212 203 201 203 204 206 216 226 229 228 229 227 226 230 235 233 235 234 233 237 240 245 246 240 232 236 239 245
260 267 267 263 266 267 270 278 280 273 270 261 253 241 226 212 197 198 202 203 201 201 215 228 233 240 245 234 228 233 239 242 245 239 237 240 244 248 250 249 242 229 220 212
256 251 257 270 272 270 267 266 264 259 254 248 233 218 208 205 201 202 199 194 192 199 212 226 235 252 258 242 233 235 238 238 243 249 245 243 242 246 249 250 252 240 223 196
263 255 252 255 259 262 258 249 249 250 245 243 231 225 221 219 208 195 190 190 198 211 224 235 248 263 262 251 245 245 242 247 253 249 246 242 238 242 248 252 255 245 232 225
255 252 247 247 249 251 249 247 248 246 236 228 230 232 230 230 215 200 204 210 217 229 235 241 252 265 254 251 250 253 252 235 231 245 245 241 237 238 244 248 251 253 245 222
252 254 253 251 249 248 248 247 245 241 237 235 227 220 219 218 217 216 215 216 225 244 257 261 265 263 250 249 252 253 248 242 237 243 245 242 243 243 240 242 247 253 248 218
249 249 250 250 252 251 250 249 248 244 238 227 218 217 221 226 227 224 222 225 235 245 268 288 294 256 249 249 261 251 247 241 241 244 246 243 241 243 243 243 245 251 248 234
249 248 252 253 251 250 249 245 242 239 230 219 215 216 218 218 214 212 219 227 235 259 267 277 262 261 263 249 257 253 247 245 243 244 245 243 244 246 245 245 248 251 252 243
256 252 254 257 258 253 245 236 229 228 223 214 213 215 218 216 213 216 223 231 241 283 273 252 249 265 271 287 257 255 249 249 247 243 238 239 243 247 249 247 247 247 248 246
257 259 264 268 268 267 256 238 226 217 210 211 216 215 212 211 210 220 228 242 243 265 266 245 254 288 306 297 260 258 254 256 257 251 244 242 241 241 246 249 248 248 247 245
260 263 267 266 263 269 268 242 219 207 206 208 211 208 209 216 218 221 232 243 241 243 259 255 301 316 298 270 260 259 258 257 257 257 250 244 243 241 242 245 247 247 247 245
254 253 262 267 257 240 241 241 227 215 213 216 219 219 217 214 224 235 253 226 238 244 256 253 253 266 272 267 264 261 260 258 257 258 257 253 248 245 242 244 246 246 245 244
248 243 239 234 234 240 245 241 229 214 212 216 218 219 228 231 238 248 251 232 228 234 252 244 239 260 269 273 270 268 267 264 264 264 259 259 258 253 247 244 243 245 246 244
253 251 247 243 241 241 239 229 227 224 218 227 236 231 233 233 230 238 242 231 239 267 273 260 248 256 269 273 274 275 275 270 264 261 261 263 260 256 252 248 244 244 246 245
257 255 246 237 236 235 235 231 228 229 228 225 228 235 231 228 220 224 235 241 246 256 263 265 262 264 269 269 270 272 272 272 270 266 265 262 260 257 255 253 250 246 246 246